Location: Cormont
(50.5693°N, 1.7416°E)
Time: 00:45:09
(UTC+00:00)

SJ-6B - Pass Details

Date: 21 October 2019
Orbit: 510 x 582 km, 97.6° (Epoch: 14 November)

Event Time Altitude Azimuth Distance (km) Brightness Sun altitude
Exits shadow 18:47:33 23° 26° (NNE) 1,155 4.2 -19.4°
Drops below altitude 10° 18:49:22 10° 5° (N) 1,752 5.4 -19.7°
Sets 18:51:36 0° 355° (N) 2,639 6.5 -20.0°
